Year,Month,Day,Hour,Minute,Value (Times are PST for temperature in C)
2008,07,25,00,00,14.60
2008,07,25,00,01,14.60
2008,07,25,00,02,14.60
2008,07,25,00,03,14.50
2008,07,25,00,04,14.50
2008,07,25,00,05,14.50
2008,07,25,00,06,14.40
2008,07,25,00,07,14.40
2008,07,25,00,08,14.40
2008,07,25,00,09,14.40
2008,07,25,00,10,14.50
2008,07,25,00,11,14.50
2008,07,25,00,12,14.50
2008,07,25,00,13,14.50
2008,07,25,00,14,14.50
2008,07,25,00,15,14.50
2008,07,25,00,16,14.50
2008,07,25,00,17,14.60
2008,07,25,00,18,14.60
2008,07,25,00,19,14.60
2008,07,25,00,20,14.60
2008,07,25,00,21,14.60
2008,07,25,00,22,14.60
2008,07,25,00,23,14.60
2008,07,25,00,24,14.60
2008,07,25,00,25,14.60
2008,07,25,00,26,14.60
2008,07,25,00,27,14.60
2008,07,25,00,28,14.50
2008,07,25,00,29,14.50
2008,07,25,00,30,14.50
2008,07,25,00,31,14.50
2008,07,25,00,32,14.50
2008,07,25,00,33,14.50
2008,07,25,00,34,14.50
2008,07,25,00,35,14.50
2008,07,25,00,36,14.50
2008,07,25,00,37,14.50
2008,07,25,00,38,14.50
2008,07,25,00,39,14.50
2008,07,25,00,40,14.50
2008,07,25,00,41,14.50
2008,07,25,00,42,14.50
2008,07,25,00,43,14.50
2008,07,25,00,44,14.60
2008,07,25,00,45,14.60
2008,07,25,00,46,14.60
2008,07,25,00,47,14.60
2008,07,25,00,48,14.60
2008,07,25,00,49,14.60
2008,07,25,00,50,14.60
2008,07,25,00,51,14.60
2008,07,25,00,52,14.50
2008,07,25,00,53,14.50
2008,07,25,00,54,14.50
2008,07,25,00,55,14.50
2008,07,25,00,56,14.50
2008,07,25,00,57,14.50
2008,07,25,00,58,14.50
2008,07,25,00,59,14.40
2008,07,25,01,00,14.40
2008,07,25,01,01,14.40
2008,07,25,01,02,14.40
2008,07,25,01,03,14.40
2008,07,25,01,04,14.30
2008,07,25,01,05,14.30
2008,07,25,01,06,14.30
2008,07,25,01,07,14.20
2008,07,25,01,08,14.20
2008,07,25,01,09,14.20
2008,07,25,01,10,14.20
2008,07,25,01,11,14.20
2008,07,25,01,12,14.10
2008,07,25,01,13,14.00
2008,07,25,01,14,14.00
2008,07,25,01,15,13.90
2008,07,25,01,16,13.90
2008,07,25,01,17,13.80
2008,07,25,01,18,13.80
2008,07,25,01,19,13.70
2008,07,25,01,20,13.70
2008,07,25,01,21,13.70
2008,07,25,01,22,13.70
2008,07,25,01,23,13.70
2008,07,25,01,24,13.60
2008,07,25,01,25,13.60
2008,07,25,01,26,13.50
2008,07,25,01,27,13.50
2008,07,25,01,28,13.50
2008,07,25,01,29,13.40
2008,07,25,01,30,13.40
2008,07,25,01,31,13.40
2008,07,25,01,32,13.30
2008,07,25,01,33,13.30
2008,07,25,01,34,13.30
2008,07,25,01,35,13.30
2008,07,25,01,36,13.30
2008,07,25,01,37,13.20
2008,07,25,01,38,13.20
2008,07,25,01,39,13.20
2008,07,25,01,40,13.20
2008,07,25,01,41,13.20
2008,07,25,01,42,13.10
2008,07,25,01,43,13.10
2008,07,25,01,44,13.10
2008,07,25,01,45,13.10
2008,07,25,01,46,13.10
2008,07,25,01,47,13.10
2008,07,25,01,48,13.00
2008,07,25,01,49,13.00
2008,07,25,01,50,13.00
2008,07,25,01,51,13.00
2008,07,25,01,52,13.00
2008,07,25,01,53,13.00
2008,07,25,01,54,13.00
2008,07,25,01,55,12.90
2008,07,25,01,56,12.90
2008,07,25,01,57,12.90
2008,07,25,01,58,12.90
2008,07,25,01,59,12.80
2008,07,25,02,00,12.80
2008,07,25,02,01,12.80
2008,07,25,02,02,12.80
2008,07,25,02,03,12.80
2008,07,25,02,04,12.80
2008,07,25,02,05,12.80
2008,07,25,02,06,12.80
2008,07,25,02,07,12.80
2008,07,25,02,08,12.80
2008,07,25,02,09,12.80
2008,07,25,02,10,12.80
2008,07,25,02,11,12.80
2008,07,25,02,12,12.80
2008,07,25,02,13,12.80
2008,07,25,02,14,12.70
2008,07,25,02,15,12.70
2008,07,25,02,16,12.70
2008,07,25,02,17,12.60
2008,07,25,02,18,12.60
2008,07,25,02,19,12.60
2008,07,25,02,20,12.50
2008,07,25,02,21,12.50
2008,07,25,02,22,12.50
2008,07,25,02,23,12.50
2008,07,25,02,24,12.50
2008,07,25,02,25,12.50
2008,07,25,02,26,12.50
2008,07,25,02,27,12.40
2008,07,25,02,28,12.40
2008,07,25,02,29,12.40
2008,07,25,02,30,12.40
2008,07,25,02,31,12.40
2008,07,25,02,32,12.40
2008,07,25,02,33,12.40
2008,07,25,02,34,12.40
2008,07,25,02,35,12.30
2008,07,25,02,36,12.30
2008,07,25,02,37,12.30
2008,07,25,02,38,12.30
2008,07,25,02,39,12.40
2008,07,25,02,40,12.40
2008,07,25,02,41,12.30
2008,07,25,02,42,12.30
2008,07,25,02,43,12.30
2008,07,25,02,44,12.30
2008,07,25,02,45,12.30
2008,07,25,02,46,12.30
2008,07,25,02,47,12.30
2008,07,25,02,48,12.30
2008,07,25,02,49,12.30
2008,07,25,02,50,12.30
2008,07,25,02,51,12.30
2008,07,25,02,52,12.30
2008,07,25,02,53,12.30
2008,07,25,02,54,12.30
2008,07,25,02,55,12.30
2008,07,25,02,56,12.20
2008,07,25,02,57,12.20
2008,07,25,02,58,12.20
2008,07,25,02,59,12.20
2008,07,25,03,00,12.10
2008,07,25,03,01,12.10
2008,07,25,03,02,12.10
2008,07,25,03,03,12.10
2008,07,25,03,04,12.10
2008,07,25,03,05,12.00
2008,07,25,03,06,12.00
2008,07,25,03,07,12.00
2008,07,25,03,08,12.00
2008,07,25,03,09,12.00
2008,07,25,03,10,12.00
2008,07,25,03,11,11.90
2008,07,25,03,12,11.90
2008,07,25,03,13,11.90
2008,07,25,03,14,11.90
2008,07,25,03,15,11.80
2008,07,25,03,16,11.80
2008,07,25,03,17,11.80
2008,07,25,03,18,11.80
2008,07,25,03,19,11.80
2008,07,25,03,20,11.80
2008,07,25,03,21,11.80
2008,07,25,03,22,11.80
2008,07,25,03,23,11.80
2008,07,25,03,24,11.80
2008,07,25,03,25,11.80
2008,07,25,03,26,11.80
2008,07,25,03,27,11.80
2008,07,25,03,28,11.80
2008,07,25,03,29,11.80
2008,07,25,03,30,11.80
2008,07,25,03,31,11.80
2008,07,25,03,32,11.80
2008,07,25,03,33,11.80
2008,07,25,03,34,11.80
2008,07,25,03,35,11.70
2008,07,25,03,36,11.70
2008,07,25,03,37,11.70
2008,07,25,03,38,11.70
2008,07,25,03,39,11.70
2008,07,25,03,40,11.70
2008,07,25,03,41,11.60
2008,07,25,03,42,11.60
2008,07,25,03,43,11.70
2008,07,25,03,44,11.70
2008,07,25,03,45,11.70
2008,07,25,03,46,11.70
2008,07,25,03,47,11.70
2008,07,25,03,48,11.70
2008,07,25,03,49,11.70
2008,07,25,03,50,11.70
2008,07,25,03,51,11.80
2008,07,25,03,52,11.80
2008,07,25,03,53,11.80
2008,07,25,03,54,11.80
2008,07,25,03,55,11.80
2008,07,25,03,56,11.80
2008,07,25,03,57,11.80
2008,07,25,03,58,11.80
2008,07,25,03,59,11.70
2008,07,25,04,00,11.70
2008,07,25,04,01,11.70
2008,07,25,04,02,11.70
2008,07,25,04,03,11.70
2008,07,25,04,04,11.70
2008,07,25,04,05,11.60
2008,07,25,04,06,11.60
2008,07,25,04,07,11.60
2008,07,25,04,08,11.60
2008,07,25,04,09,11.60
2008,07,25,04,10,11.60
2008,07,25,04,11,11.60
2008,07,25,04,12,11.60
2008,07,25,04,13,11.60
2008,07,25,04,14,11.60
2008,07,25,04,15,11.40
2008,07,25,04,16,11.40
2008,07,25,04,17,11.40
2008,07,25,04,18,11.40
2008,07,25,04,19,11.40
2008,07,25,04,20,11.40
2008,07,25,04,21,11.40
2008,07,25,04,22,11.40
2008,07,25,04,23,11.40
2008,07,25,04,24,11.40
2008,07,25,04,25,11.40
2008,07,25,04,26,11.30
2008,07,25,04,27,11.30
2008,07,25,04,28,11.30
2008,07,25,04,29,11.30
2008,07,25,04,30,11.30
2008,07,25,04,31,11.30
2008,07,25,04,32,11.30
2008,07,25,04,33,11.30
2008,07,25,04,34,11.20
2008,07,25,04,35,11.20
2008,07,25,04,36,11.30
2008,07,25,04,37,11.20
2008,07,25,04,38,11.20
2008,07,25,04,39,11.20
2008,07,25,04,40,11.20
2008,07,25,04,41,11.20
2008,07,25,04,42,11.20
2008,07,25,04,43,11.20
2008,07,25,04,44,11.30
2008,07,25,04,45,11.30
2008,07,25,04,46,11.30
2008,07,25,04,47,11.30
2008,07,25,04,48,11.30
2008,07,25,04,49,11.30
2008,07,25,04,50,11.30
2008,07,25,04,51,11.30
2008,07,25,04,52,11.30
2008,07,25,04,53,11.30
2008,07,25,04,54,11.30
2008,07,25,04,55,11.20
2008,07,25,04,56,11.20
2008,07,25,04,57,11.20
2008,07,25,04,58,11.20
2008,07,25,04,59,11.20
2008,07,25,05,00,11.20
2008,07,25,05,01,11.20
2008,07,25,05,02,11.20
2008,07,25,05,03,11.20
2008,07,25,05,04,11.10
2008,07,25,05,05,11.10
2008,07,25,05,06,11.10
2008,07,25,05,07,11.10
2008,07,25,05,08,11.10
2008,07,25,05,09,11.10
2008,07,25,05,10,11.10
2008,07,25,05,11,11.10
2008,07,25,05,12,11.10
2008,07,25,05,13,11.10
2008,07,25,05,14,11.00
2008,07,25,05,15,10.90
2008,07,25,05,16,10.90
2008,07,25,05,17,10.90
2008,07,25,05,18,10.90
2008,07,25,05,19,10.90
2008,07,25,05,20,10.90
2008,07,25,05,21,10.90
2008,07,25,05,22,10.90
2008,07,25,05,23,10.90
2008,07,25,05,24,10.90
2008,07,25,05,25,10.90
2008,07,25,05,26,10.90
2008,07,25,05,27,10.90
2008,07,25,05,28,10.90
2008,07,25,05,29,10.90
2008,07,25,05,30,10.90
2008,07,25,05,31,10.90
2008,07,25,05,32,10.90
2008,07,25,05,33,10.80
2008,07,25,05,34,10.80
2008,07,25,05,35,10.80
2008,07,25,05,36,10.80
2008,07,25,05,37,10.80
2008,07,25,05,38,10.80
2008,07,25,05,39,10.80
2008,07,25,05,40,10.80
2008,07,25,05,41,10.80
2008,07,25,05,42,10.80
2008,07,25,05,43,10.80
2008,07,25,05,44,10.80
2008,07,25,05,45,10.80
2008,07,25,05,46,10.80
2008,07,25,05,47,10.80
2008,07,25,05,48,10.80
2008,07,25,05,49,10.80
2008,07,25,05,50,10.80
2008,07,25,05,51,10.80
2008,07,25,05,52,10.80
2008,07,25,05,53,10.80
2008,07,25,05,54,10.80
2008,07,25,05,55,10.80
2008,07,25,05,56,10.70
2008,07,25,05,57,10.70
2008,07,25,05,58,10.70
2008,07,25,05,59,10.70
2008,07,25,06,00,10.60
2008,07,25,06,01,10.60
2008,07,25,06,02,10.60
2008,07,25,06,03,10.60
2008,07,25,06,04,10.60
2008,07,25,06,05,10.60
2008,07,25,06,06,10.60
2008,07,25,06,07,10.60
2008,07,25,06,08,10.60
2008,07,25,06,09,10.60
2008,07,25,06,10,10.60
2008,07,25,06,11,10.60
2008,07,25,06,12,10.70
2008,07,25,06,13,10.70
2008,07,25,06,14,10.70
2008,07,25,06,15,10.70
2008,07,25,06,16,10.70
2008,07,25,06,17,10.80
2008,07,25,06,18,10.80
2008,07,25,06,19,10.80
2008,07,25,06,20,10.80
2008,07,25,06,21,10.80
2008,07,25,06,22,10.90
2008,07,25,06,23,10.90
2008,07,25,06,24,10.90
2008,07,25,06,25,10.90
2008,07,25,06,26,10.90
2008,07,25,06,27,10.90
2008,07,25,06,28,10.90
2008,07,25,06,29,10.90
2008,07,25,06,30,11.00
2008,07,25,06,31,11.10
2008,07,25,06,32,11.10
2008,07,25,06,33,11.10
2008,07,25,06,34,11.10
2008,07,25,06,35,11.10
2008,07,25,06,36,11.20
2008,07,25,06,37,11.20
2008,07,25,06,38,11.20
2008,07,25,06,39,11.30
2008,07,25,06,40,11.30
2008,07,25,06,41,11.40
2008,07,25,06,42,11.40
2008,07,25,06,43,11.40
2008,07,25,06,44,11.50
2008,07,25,06,45,11.60
2008,07,25,06,46,11.60
2008,07,25,06,47,11.60
2008,07,25,06,48,11.60
2008,07,25,06,49,11.70
2008,07,25,06,50,11.70
2008,07,25,06,51,11.80
2008,07,25,06,52,11.80
2008,07,25,06,53,11.80
2008,07,25,06,54,11.90
2008,07,25,06,55,11.90
2008,07,25,06,56,12.00
2008,07,25,06,57,12.00
2008,07,25,06,58,12.10
2008,07,25,06,59,12.20
2008,07,25,07,00,12.20
2008,07,25,07,01,12.30
2008,07,25,07,02,12.30
2008,07,25,07,03,12.30
2008,07,25,07,04,12.40
2008,07,25,07,05,12.40
2008,07,25,07,06,12.50
2008,07,25,07,07,12.50
2008,07,25,07,08,12.60
2008,07,25,07,09,12.60
2008,07,25,07,10,12.70
2008,07,25,07,11,12.70
2008,07,25,07,12,12.70
2008,07,25,07,13,12.80
2008,07,25,07,14,12.80
2008,07,25,07,15,12.80
2008,07,25,07,16,12.80
2008,07,25,07,17,12.80
2008,07,25,07,18,12.80
2008,07,25,07,19,12.80
2008,07,25,07,20,12.90
2008,07,25,07,21,13.00
2008,07,25,07,22,13.10
2008,07,25,07,23,13.10
2008,07,25,07,24,13.20
2008,07,25,07,25,13.30
2008,07,25,07,26,13.30
2008,07,25,07,27,13.40
2008,07,25,07,28,13.50
2008,07,25,07,29,13.60
2008,07,25,07,30,13.70
2008,07,25,07,31,13.70
2008,07,25,07,32,13.70
2008,07,25,07,33,13.70
2008,07,25,07,34,13.80
2008,07,25,07,35,13.90
2008,07,25,07,36,13.90
2008,07,25,07,37,13.90
2008,07,25,07,38,14.00
2008,07,25,07,39,14.00
2008,07,25,07,40,14.10
2008,07,25,07,41,14.20
2008,07,25,07,42,14.20
2008,07,25,07,43,14.20
2008,07,25,07,44,14.30
2008,07,25,07,45,14.40
2008,07,25,07,46,14.50
2008,07,25,07,47,14.50
2008,07,25,07,48,14.60
2008,07,25,07,49,14.60
2008,07,25,07,50,14.60
2008,07,25,07,51,14.70
2008,07,25,07,52,14.80
2008,07,25,07,53,14.90
2008,07,25,07,54,14.90
2008,07,25,07,55,15.00
2008,07,25,07,56,15.10
2008,07,25,07,57,15.20
2008,07,25,07,58,15.30
2008,07,25,07,59,15.30
2008,07,25,08,00,15.50
2008,07,25,08,01,15.60
2008,07,25,08,02,15.60
2008,07,25,08,03,15.80
2008,07,25,08,04,15.80
2008,07,25,08,05,15.90
2008,07,25,08,06,15.90
2008,07,25,08,07,16.10
2008,07,25,08,08,16.10
2008,07,25,08,09,16.10
2008,07,25,08,10,16.30
2008,07,25,08,11,16.40
2008,07,25,08,12,16.50
2008,07,25,08,13,16.60
2008,07,25,08,14,16.70
2008,07,25,08,15,16.90
2008,07,25,08,16,16.90
2008,07,25,08,17,16.90
2008,07,25,08,18,17.10
2008,07,25,08,19,17.20
2008,07,25,08,20,17.30
2008,07,25,08,21,17.30
2008,07,25,08,22,17.40
2008,07,25,08,23,17.40
2008,07,25,08,24,17.40
2008,07,25,08,25,17.30
2008,07,25,08,26,17.30
2008,07,25,08,27,17.30
2008,07,25,08,28,17.30
2008,07,25,08,29,17.30
2008,07,25,08,30,17.40
2008,07,25,08,31,17.40
2008,07,25,08,32,17.40
2008,07,25,08,33,17.50
2008,07,25,08,34,17.50
2008,07,25,08,35,17.50
2008,07,25,08,36,17.60
2008,07,25,08,37,17.60
2008,07,25,08,38,17.60
2008,07,25,08,39,17.50
2008,07,25,08,40,17.40
2008,07,25,08,41,17.30
2008,07,25,08,42,17.30
2008,07,25,08,43,17.30
2008,07,25,08,44,17.30
2008,07,25,08,45,17.40
2008,07,25,08,46,17.40
2008,07,25,08,47,17.40
2008,07,25,08,48,17.50
2008,07,25,08,49,17.60
2008,07,25,08,50,17.70
2008,07,25,08,51,17.70
2008,07,25,08,52,17.80
2008,07,25,08,53,17.90
2008,07,25,08,54,17.90
2008,07,25,08,55,18.10
2008,07,25,08,56,18.10
2008,07,25,08,57,18.20
2008,07,25,08,58,18.20
2008,07,25,08,59,18.30
2008,07,25,09,00,18.30
2008,07,25,09,01,18.40
2008,07,25,09,02,18.50
2008,07,25,09,03,18.50
2008,07,25,09,04,18.60
2008,07,25,09,05,18.60
2008,07,25,09,06,18.70
2008,07,25,09,07,18.80
2008,07,25,09,08,18.80
2008,07,25,09,09,18.80
2008,07,25,09,10,18.90
2008,07,25,09,11,18.90
2008,07,25,09,12,18.80
2008,07,25,09,13,18.70
2008,07,25,09,14,18.70
2008,07,25,09,15,18.60
2008,07,25,09,16,18.60
2008,07,25,09,17,18.60
2008,07,25,09,18,18.70
2008,07,25,09,19,18.70
2008,07,25,09,20,18.70
2008,07,25,09,21,18.70
2008,07,25,09,22,18.80
2008,07,25,09,23,18.80
2008,07,25,09,24,18.80
2008,07,25,09,25,18.80
2008,07,25,09,26,18.80
2008,07,25,09,27,18.90
2008,07,25,09,28,18.90
2008,07,25,09,29,18.90
2008,07,25,09,30,18.90
2008,07,25,09,31,19.10
2008,07,25,09,32,19.10
2008,07,25,09,33,19.10
2008,07,25,09,34,19.00
2008,07,25,09,35,18.90
2008,07,25,09,36,18.90
2008,07,25,09,37,18.90
2008,07,25,09,38,18.90
2008,07,25,09,39,18.90
2008,07,25,09,40,18.90
2008,07,25,09,41,18.90
2008,07,25,09,42,19.00
2008,07,25,09,43,19.10
2008,07,25,09,44,19.10
2008,07,25,09,45,19.10
2008,07,25,09,46,19.10
2008,07,25,09,47,19.10
2008,07,25,09,48,19.10
2008,07,25,09,49,19.10
2008,07,25,09,50,19.10
2008,07,25,09,51,19.10
2008,07,25,09,52,19.20
2008,07,25,09,53,19.20
2008,07,25,09,54,19.20
2008,07,25,09,55,19.30
2008,07,25,09,56,19.30
2008,07,25,09,57,19.30
2008,07,25,09,58,19.30
2008,07,25,09,59,19.20
2008,07,25,10,00,19.20
2008,07,25,10,01,19.30
2008,07,25,10,02,19.30
2008,07,25,10,03,19.40
2008,07,25,10,04,19.50
2008,07,25,10,05,19.60
2008,07,25,10,06,19.70
2008,07,25,10,07,19.80
2008,07,25,10,08,19.90
2008,07,25,10,09,20.00
2008,07,25,10,10,20.20
2008,07,25,10,11,20.30
2008,07,25,10,12,20.40
2008,07,25,10,13,20.50
2008,07,25,10,14,20.50
2008,07,25,10,15,20.50
2008,07,25,10,16,20.60
2008,07,25,10,17,20.60
2008,07,25,10,18,20.60
2008,07,25,10,19,20.60
2008,07,25,10,20,20.60
2008,07,25,10,21,20.60
2008,07,25,10,22,20.60
2008,07,25,10,23,20.70
2008,07,25,10,24,20.80
2008,07,25,10,25,20.80
2008,07,25,10,26,20.90
2008,07,25,10,27,21.00
2008,07,25,10,28,21.00
2008,07,25,10,29,21.10
2008,07,25,10,30,21.20
2008,07,25,10,31,21.10
2008,07,25,10,32,21.10
2008,07,25,10,33,21.10
2008,07,25,10,34,21.10
2008,07,25,10,35,21.10
2008,07,25,10,36,21.10
2008,07,25,10,37,21.20
2008,07,25,10,38,21.20
2008,07,25,10,39,21.20
2008,07,25,10,40,21.30
2008,07,25,10,41,21.30
2008,07,25,10,42,21.30
2008,07,25,10,43,21.30
2008,07,25,10,44,21.30
2008,07,25,10,45,21.30
2008,07,25,10,46,21.30
2008,07,25,10,47,21.20
2008,07,25,10,48,21.10
2008,07,25,10,49,21.00
2008,07,25,10,50,21.00
2008,07,25,10,51,21.10
2008,07,25,10,52,21.00
2008,07,25,10,53,21.00
2008,07,25,10,54,21.00
2008,07,25,10,55,21.10
2008,07,25,10,56,21.20
2008,07,25,10,57,21.20
2008,07,25,10,58,21.20
2008,07,25,10,59,21.30
2008,07,25,11,00,21.20
2008,07,25,11,01,21.20
2008,07,25,11,02,21.20
2008,07,25,11,03,21.10
2008,07,25,11,04,21.00
2008,07,25,11,05,21.00
2008,07,25,11,06,21.00
2008,07,25,11,07,21.00
2008,07,25,11,08,21.00
2008,07,25,11,09,21.00
2008,07,25,11,10,21.10
2008,07,25,11,11,21.10
2008,07,25,11,12,21.20
2008,07,25,11,13,21.20
2008,07,25,11,14,21.20
2008,07,25,11,15,21.20
2008,07,25,11,16,21.20
2008,07,25,11,17,21.10
2008,07,25,11,18,21.10
2008,07,25,11,19,21.00
2008,07,25,11,20,21.00
2008,07,25,11,21,20.90
2008,07,25,11,22,20.90
2008,07,25,11,23,21.00
2008,07,25,11,24,21.00
2008,07,25,11,25,21.00
2008,07,25,11,26,21.10
2008,07,25,11,27,21.10
2008,07,25,11,28,21.10
2008,07,25,11,29,21.10
2008,07,25,11,30,21.10
2008,07,25,11,31,21.10
2008,07,25,11,32,21.00
2008,07,25,11,33,21.00
2008,07,25,11,34,21.00
2008,07,25,11,35,20.90
2008,07,25,11,36,20.80
2008,07,25,11,37,20.80
2008,07,25,11,38,20.70
2008,07,25,11,39,20.60
2008,07,25,11,40,20.60
2008,07,25,11,41,20.50
2008,07,25,11,42,20.50
2008,07,25,11,43,20.50
2008,07,25,11,44,20.50
2008,07,25,11,45,20.50
2008,07,25,11,46,20.50
2008,07,25,11,47,20.50
2008,07,25,11,48,20.50
2008,07,25,11,49,20.50
2008,07,25,11,50,20.50
2008,07,25,11,51,20.60
2008,07,25,11,52,20.60
2008,07,25,11,53,20.70
2008,07,25,11,54,20.80
2008,07,25,11,55,20.90
2008,07,25,11,56,20.90
2008,07,25,11,57,20.90
2008,07,25,11,58,21.00
2008,07,25,11,59,21.10
2008,07,25,12,00,21.10
2008,07,25,12,01,21.10
2008,07,25,12,02,21.10
2008,07,25,12,03,21.20
2008,07,25,12,04,21.10
2008,07,25,12,05,21.10
2008,07,25,12,06,21.10
2008,07,25,12,07,21.10
2008,07,25,12,08,21.10
2008,07,25,12,09,21.10
2008,07,25,12,10,21.10
2008,07,25,12,11,21.10
2008,07,25,12,12,21.20
2008,07,25,12,13,21.30
2008,07,25,12,14,21.40
2008,07,25,12,15,21.40
2008,07,25,12,16,21.60
2008,07,25,12,17,21.60
2008,07,25,12,18,21.60
2008,07,25,12,19,21.80
2008,07,25,12,20,21.80
2008,07,25,12,21,21.80
2008,07,25,12,22,21.90
2008,07,25,12,23,22.00
2008,07,25,12,24,22.00
2008,07,25,12,25,22.00
2008,07,25,12,26,22.00
2008,07,25,12,27,22.00
2008,07,25,12,28,21.90
2008,07,25,12,29,21.90
2008,07,25,12,30,21.90
2008,07,25,12,31,21.90
2008,07,25,12,32,21.90
2008,07,25,12,33,22.00
2008,07,25,12,34,21.90
2008,07,25,12,35,21.80
2008,07,25,12,36,21.70
2008,07,25,12,37,21.70
2008,07,25,12,38,21.70
2008,07,25,12,39,21.80
2008,07,25,12,40,21.90
2008,07,25,12,41,21.90
2008,07,25,12,42,22.00
2008,07,25,12,43,22.00
2008,07,25,12,44,22.00
2008,07,25,12,45,22.00
2008,07,25,12,46,22.00
2008,07,25,12,47,22.00
2008,07,25,12,48,22.00
2008,07,25,12,49,22.10
2008,07,25,12,50,22.10
2008,07,25,12,51,22.00
2008,07,25,12,52,22.00
2008,07,25,12,53,22.00
2008,07,25,12,54,21.90
2008,07,25,12,55,21.90
2008,07,25,12,56,22.00
2008,07,25,12,57,22.10
2008,07,25,12,58,22.20
2008,07,25,12,59,22.30
2008,07,25,13,00,22.30
2008,07,25,13,01,22.30
2008,07,25,13,02,22.30
2008,07,25,13,03,22.20
2008,07,25,13,04,22.20
2008,07,25,13,05,22.20
2008,07,25,13,06,22.20
2008,07,25,13,07,22.30
2008,07,25,13,08,22.40
2008,07,25,13,09,22.50
2008,07,25,13,10,22.70
2008,07,25,13,11,23.00
2008,07,25,13,12,23.20
2008,07,25,13,13,23.20
2008,07,25,13,14,23.30
2008,07,25,13,15,23.30
2008,07,25,13,16,23.30
2008,07,25,13,17,23.20
2008,07,25,13,18,23.10
2008,07,25,13,19,23.10
2008,07,25,13,20,23.00
2008,07,25,13,21,23.00
2008,07,25,13,22,22.90
2008,07,25,13,23,22.90
2008,07,25,13,24,22.90
2008,07,25,13,25,22.90
2008,07,25,13,26,23.00
2008,07,25,13,27,23.00
2008,07,25,13,28,22.90
2008,07,25,13,29,22.90
2008,07,25,13,30,22.90
2008,07,25,13,31,22.90
2008,07,25,13,32,23.00
2008,07,25,13,33,23.10
2008,07,25,13,34,23.20
2008,07,25,13,35,23.30
2008,07,25,13,36,23.40
2008,07,25,13,37,23.50
2008,07,25,13,38,23.60
2008,07,25,13,39,23.70
2008,07,25,13,40,23.80
2008,07,25,13,41,23.80
2008,07,25,13,42,24.00
2008,07,25,13,43,24.10
2008,07,25,13,44,24.10
2008,07,25,13,45,24.10
2008,07,25,13,46,24.10
2008,07,25,13,47,24.20
2008,07,25,13,48,24.30
2008,07,25,13,49,24.30
2008,07,25,13,50,24.30
2008,07,25,13,51,24.20
2008,07,25,13,52,24.20
2008,07,25,13,53,24.20
2008,07,25,13,54,24.30
2008,07,25,13,55,24.30
2008,07,25,13,56,24.30
2008,07,25,13,57,24.40
2008,07,25,13,58,24.40
2008,07,25,13,59,24.40
2008,07,25,14,00,24.40
2008,07,25,14,01,24.30
2008,07,25,14,02,24.40
2008,07,25,14,03,24.50
2008,07,25,14,04,24.70
2008,07,25,14,05,24.90
2008,07,25,14,06,24.90
2008,07,25,14,07,24.90
2008,07,25,14,08,24.90
2008,07,25,14,09,24.90
2008,07,25,14,10,24.70
2008,07,25,14,11,24.70
2008,07,25,14,12,24.70
2008,07,25,14,13,24.70
2008,07,25,14,14,24.60
2008,07,25,14,15,24.50
2008,07,25,14,16,24.40
2008,07,25,14,17,24.30
2008,07,25,14,18,24.20
2008,07,25,14,19,24.10
2008,07,25,14,20,24.10
2008,07,25,14,21,24.10
2008,07,25,14,22,24.10
2008,07,25,14,23,24.10
2008,07,25,14,24,24.10
2008,07,25,14,25,23.90
2008,07,25,14,26,24.00
2008,07,25,14,27,23.90
2008,07,25,14,28,23.90
2008,07,25,14,29,24.00
2008,07,25,14,30,24.10
2008,07,25,14,31,24.00
2008,07,25,14,32,24.00
2008,07,25,14,33,24.00
2008,07,25,14,34,23.80
2008,07,25,14,35,23.80
2008,07,25,14,36,23.80
2008,07,25,14,37,23.70
2008,07,25,14,38,23.70
2008,07,25,14,39,23.70
2008,07,25,14,40,23.70
2008,07,25,14,41,23.60
2008,07,25,14,42,23.60
2008,07,25,14,43,23.60
2008,07,25,14,44,23.60
2008,07,25,14,45,23.70
2008,07,25,14,46,23.70
2008,07,25,14,47,23.50
2008,07,25,14,48,23.40
2008,07,25,14,49,23.30
2008,07,25,14,50,23.20
2008,07,25,14,51,23.00
2008,07,25,14,52,22.90
2008,07,25,14,53,22.70
2008,07,25,14,54,22.60
2008,07,25,14,55,22.50
2008,07,25,14,56,22.30
2008,07,25,14,57,22.30
2008,07,25,14,58,22.20
2008,07,25,14,59,22.30
2008,07,25,15,00,22.20
2008,07,25,15,01,22.20
2008,07,25,15,02,22.10
2008,07,25,15,03,21.90
2008,07,25,15,04,21.80
2008,07,25,15,05,21.70
2008,07,25,15,06,21.70
2008,07,25,15,07,21.70
2008,07,25,15,08,21.60
2008,07,25,15,09,21.60
2008,07,25,15,10,21.60
2008,07,25,15,11,21.60
2008,07,25,15,12,21.60
2008,07,25,15,13,21.60
2008,07,25,15,14,21.70
2008,07,25,15,15,21.70
2008,07,25,15,16,21.80
2008,07,25,15,17,21.80
2008,07,25,15,18,21.80
2008,07,25,15,19,21.80
2008,07,25,15,20,21.80
2008,07,25,15,21,21.70
2008,07,25,15,22,21.80
2008,07,25,15,23,21.80
2008,07,25,15,24,21.70
2008,07,25,15,25,21.70
2008,07,25,15,26,21.60
2008,07,25,15,27,21.60
2008,07,25,15,28,21.60
2008,07,25,15,29,21.60
2008,07,25,15,30,21.60
2008,07,25,15,31,21.60
2008,07,25,15,32,21.50
2008,07,25,15,33,21.40
2008,07,25,15,34,21.40
2008,07,25,15,35,21.40
2008,07,25,15,36,21.40
2008,07,25,15,37,21.40
2008,07,25,15,38,21.60
2008,07,25,15,39,21.60
2008,07,25,15,40,21.70
2008,07,25,15,41,21.90
2008,07,25,15,42,22.00
2008,07,25,15,43,22.30
2008,07,25,15,44,22.50
2008,07,25,15,45,22.70
2008,07,25,15,46,22.60
2008,07,25,15,47,22.60
2008,07,25,15,48,22.70
2008,07,25,15,49,22.80
2008,07,25,15,50,22.90
2008,07,25,15,51,22.90
2008,07,25,15,52,22.90
2008,07,25,15,53,23.10
2008,07,25,15,54,23.10
2008,07,25,15,55,23.10
2008,07,25,15,56,22.90
2008,07,25,15,57,22.90
2008,07,25,15,58,22.90
2008,07,25,15,59,22.90
2008,07,25,16,00,22.90
2008,07,25,16,01,22.90
2008,07,25,16,02,22.90
2008,07,25,16,03,22.90
2008,07,25,16,04,22.90
2008,07,25,16,05,22.90
2008,07,25,16,06,22.90
2008,07,25,16,07,22.90
2008,07,25,16,08,23.00
2008,07,25,16,09,23.10
2008,07,25,16,10,23.10
2008,07,25,16,11,23.10
2008,07,25,16,12,23.10
2008,07,25,16,13,23.20
2008,07,25,16,14,23.30
2008,07,25,16,15,23.40
2008,07,25,16,16,23.50
2008,07,25,16,17,23.70
2008,07,25,16,18,23.60
2008,07,25,16,19,23.60
2008,07,25,16,20,23.70
2008,07,25,16,21,23.70
2008,07,25,16,22,23.80
2008,07,25,16,23,23.70
2008,07,25,16,24,23.60
2008,07,25,16,25,23.60
2008,07,25,16,26,23.60
2008,07,25,16,27,23.70
2008,07,25,16,28,23.60
2008,07,25,16,29,23.60
2008,07,25,16,30,23.60
2008,07,25,16,31,23.60
2008,07,25,16,32,23.50
2008,07,25,16,33,23.30
2008,07,25,16,34,23.30
2008,07,25,16,35,23.30
2008,07,25,16,36,23.40
2008,07,25,16,37,23.50
2008,07,25,16,38,23.60
2008,07,25,16,39,23.60
2008,07,25,16,40,23.70
2008,07,25,16,41,23.80
2008,07,25,16,42,23.90
2008,07,25,16,43,23.90
2008,07,25,16,44,24.00
2008,07,25,16,45,24.10
2008,07,25,16,46,24.10
2008,07,25,16,47,24.20
2008,07,25,16,48,24.20
2008,07,25,16,49,24.30
2008,07,25,16,50,24.30
2008,07,25,16,51,24.30
2008,07,25,16,52,24.30
2008,07,25,16,53,24.30
2008,07,25,16,54,24.30
2008,07,25,16,55,24.20
2008,07,25,16,56,24.10
2008,07,25,16,57,24.00
2008,07,25,16,58,23.90
2008,07,25,16,59,23.90
2008,07,25,17,00,24.00
2008,07,25,17,01,24.10
2008,07,25,17,02,24.10
2008,07,25,17,03,24.10
2008,07,25,17,04,24.10
2008,07,25,17,05,24.10
2008,07,25,17,06,24.10
2008,07,25,17,07,24.10
2008,07,25,17,08,24.00
2008,07,25,17,09,23.90
2008,07,25,17,10,23.80
2008,07,25,17,11,23.70
2008,07,25,17,12,23.70
2008,07,25,17,13,23.60
2008,07,25,17,14,23.50
2008,07,25,17,15,23.40
2008,07,25,17,16,23.30
2008,07,25,17,17,23.30
2008,07,25,17,18,23.30
2008,07,25,17,19,23.30